Torna al catalogo

TANSEI 3 DEB

LostUNKNOWN
NORAD 9981·DEBRIS·🇯🇵 Japan

Lanciato Feb 19, 1977 da Uchinoura Space Center

Loading…

Prossimi Passaggi (prossime 24 ore)

TLE

ObsoletoSource: Space-Track

Epoca: Jun 23, 2026, 14:36 UTC

1 09981U 77012E   26174.60866346  .00000236  00000-0  71687-3 0  9996
2 09981  65.2072 322.9207 1692387 298.8242  45.3093 10.84559746950891

Traccia TANSEI 3 DEB in tempo reale con AllMySat

Download on the App Store